Location: *
(51.0333°S, 178.4667°E)
Time: 02:34:52
(UTC+00:00)

Cosmos 1378 - Pass Details

Date: 15 November 2019
Orbit: 492 x 503 km, 82.5° (Epoch: 10 December)

Event Time Altitude Azimuth Distance (km) Brightness Sun altitude
Rises 10:18:57 0° 184° (S) 2,654 8.2 -17.6°
Reaches altitude 10° 10:21:15 10° 174° (S) 1,759 6.8 -17.8°
Maximum altitude 10:24:47 33° 108° (ESE) 883 4.3 -18.0°
Enters shadow 10:25:46 29° 77° (ENE) 978 4.3 -18.0°
